Theta_e
331 335 333 332 337 339 341 344 345 347 347 347 349 344 341 340 335 336 347 353 353 353 353 351 349 349 349 349 349 348 348 348 348 348 348 347 347 347 346 346 346 346 346 345 346 346 346 346 346 346 346 346 347 347 347 347 347 347 348 347 348 349 348 346 343 340 339 340 342 343 344 345 344 344 344 345 344 345 346 346 347 348 350 350 351 351 351
333 335 335 334 335 335 339 341 342 345 347 346 348 348 347 347 345 346 351 352 352 350 348 347 346 346 347 348 349 349 348 348 347 347 348 348 348 348 347 347 347 346 346 346 345 346 346 347 347 347 347 347 347 347 348 348 347 347 348 347 347 348 349 349 347 344 340 340 340 341 342 343 343 343 343 343 343 344 346 347 347 348 350 352 352 352 352
336 336 334 333 334 335 338 339 339 342 345 346 348 347 347 349 350 350 350 351 352 348 344 345 345 345 346 347 348 348 348 349 348 347 348 348 347 348 348 348 348 347 347 346 346 345 345 346 347 347 347 347 347 348 348 348 348 347 347 348 347 348 349 349 349 348 344 341 340 340 341 341 342 342 342 342 342 343 346 347 347 348 351 352 352 352 352
335 336 335 332 331 332 336 339 338 340 343 345 347 347 346 347 349 349 350 352 352 348 345 345 344 344 345 346 346 347 347 348 349 348 348 348 348 349 348 348 348 348 347 346 346 346 345 346 346 347 348 347 348 348 348 348 347 347 348 348 348 348 349 349 350 350 349 345 341 340 340 340 341 341 343 344 344 344 345 347 348 349 351 352 351 352 352
329 334 337 333 331 333 338 339 337 338 342 343 344 345 344 344 346 349 350 350 349 347 345 346 346 345 345 345 345 345 346 346 347 348 348 348 348 348 348 348 348 348 347 345 345 345 345 345 346 346 346 347 348 348 348 349 348 348 348 349 349 350 350 350 349 349 349 348 345 342 341 341 341 341 344 346 346 346 346 347 349 350 351 352 352 352 352
327 332 334 333 337 342 342 340 338 337 338 339 342 342 340 341 344 346 347 347 346 346 345 346 346 345 344 345 345 344 345 345 345 346 347 347 347 348 348 348 348 348 347 345 345 345 346 346 347 347 347 347 348 348 348 349 349 349 349 348 349 350 350 351 352 351 349 346 344 343 343 344 344 344 345 347 347 347 348 348 350 351 351 351 351 350 350
331 336 335 331 338 344 339 337 340 338 334 335 339 339 336 337 340 343 345 346 345 345 345 344 343 343 343 343 344 344 344 344 344 345 345 345 346 347 347 347 347 347 347 346 345 345 344 345 345 346 347 347 348 348 349 349 350 350 351 350 351 350 348 350 351 352 352 349 345 343 346 348 348 348 348 347 347 348 349 350 350 350 350 350 349 348 348
328 336 335 328 330 336 336 335 336 334 333 335 340 341 338 336 336 340 344 345 345 344 343 341 341 341 342 341 341 342 343 343 343 343 343 344 345 345 346 346 347 348 347 347 347 345 344 344 344 345 345 346 347 348 348 349 350 349 350 351 352 351 348 347 347 348 349 350 349 348 348 349 350 350 349 349 348 348 349 350 350 350 349 349 348 347 347
329 337 336 332 332 333 335 335 331 330 332 334 337 343 341 335 334 338 341 343 344 342 341 341 340 339 340 341 341 341 341 342 342 342 343 343 344 344 345 345 346 347 348 348 348 348 347 347 347 346 345 345 345 346 346 347 347 348 350 351 351 351 348 347 348 347 346 348 350 350 350 349 349 350 350 350 350 350 350 349 349 349 349 348 348 347 347
334 342 338 335 337 337 338 336 330 327 329 328 330 339 341 335 334 339 341 342 343 342 341 340 339 339 342 342 341 340 339 340 340 340 341 342 343 344 344 345 345 346 347 348 348 349 349 349 348 347 347 346 345 345 345 346 345 347 349 349 349 349 347 347 348 348 346 346 348 349 350 350 349 349 349 348 348 349 350 350 349 348 349 349 348 347 347
333 341 340 338 339 338 339 338 330 327 329 328 328 336 338 335 336 339 340 340 341 341 340 338 338 342 346 343 340 339 339 339 339 339 340 340 342 342 343 344 345 345 346 347 347 348 349 349 349 349 348 347 346 346 346 346 346 348 348 347 347 347 347 348 349 348 347 347 347 347 349 350 349 350 350 349 347 346 348 349 350 350 349 348 348 348 348
337 340 339 337 337 334 334 335 332 328 328 328 331 335 334 334 338 340 339 339 339 339 338 336 337 342 344 341 339 339 338 337 336 336 337 337 339 340 341 342 343 344 344 344 345 347 348 348 349 349 348 348 348 348 348 348 348 349 349 348 347 347 347 347 348 348 347 347 347 347 348 348 348 349 350 350 349 347 347 348 349 350 350 350 350 350 350
342 342 338 333 333 334 332 331 330 327 325 327 332 334 332 333 338 340 338 337 338 338 337 337 338 340 340 339 338 337 336 334 334 333 332 333 336 338 340 341 342 342 343 343 343 344 345 345 346 347 347 347 346 346 347 347 348 348 348 349 349 349 349 349 348 347 346 347 348 349 349 349 349 348 348 348 350 349 348 347 348 349 350 351 352 352 351
336 339 338 332 330 330 328 328 328 326 324 325 330 332 333 335 338 338 336 336 337 337 338 338 339 339 339 338 337 336 333 332 333 331 327 327 332 337 338 339 340 340 341 341 341 341 342 343 344 345 346 346 345 345 346 346 347 347 347 348 349 349 349 349 348 348 348 349 349 350 350 350 349 348 348 349 350 350 349 348 347 348 350 350 351 351 350
332 338 337 331 329 328 327 329 330 329 328 329 332 334 337 338 337 336 336 336 336 337 338 338 339 339 339 338 336 334 333 332 332 330 325 322 327 333 336 336 337 338 339 339 340 340 340 341 341 342 344 344 344 344 345 344 345 346 346 347 347 347 346 346 346 347 347 348 348 348 349 349 348 348 348 348 349 350 350 348 346 347 348 347 347 347 347
337 345 341 333 331 329 327 329 331 331 331 333 336 337 338 338 337 336 336 336 336 337 337 338 339 339 338 338 336 334 333 331 330 329 324 319 319 326 330 331 331 334 336 337 338 338 338 339 340 340 341 342 341 341 342 341 342 342 343 344 344 343 342 343 344 345 345 345 345 344 345 345 345 345 345 345 345 346 346 345 344 344 344 344 344 345 345
332 338 337 332 329 327 328 330 332 333 335 335 337 338 337 338 338 337 337 337 337 337 337 337 338 338 337 337 335 333 333 330 328 326 322 317 314 316 319 321 321 322 327 331 334 335 336 337 337 337 338 339 339 338 338 339 340 340 340 340 340 340 340 341 341 342 342 342 342 342 342 342 343 344 343 343 343 343 343 342 342 341 341 341 341 341 341
327 329 329 327 327 327 330 332 333 334 336 336 337 338 337 338 338 337 337 338 337 338 338 337 336 336 336 336 334 333 332 329 326 325 322 318 316 313 313 314 314 314 316 320 325 329 332 333 334 334 335 335 334 333 333 334 337 338 338 338 338 338 338 339 339 340 340 340 340 340 340 340 341 341 342 341 341 340 340 340 339 338 337 337 336 336 336
331 334 329 326 327 328 330 334 335 334 336 336 337 338 338 337 337 337 336 337 337 336 337 336 334 334 333 333 333 331 330 327 327 327 325 323 320 317 314 312 312 312 312 313 316 319 322 324 326 327 328 328 328 328 329 330 330 331 333 335 337 335 334 333 332 333 333 332 331 332 334 336 338 339 339 338 337 336 335 335 335 336 336 335 334 334 334
332 333 328 325 327 328 330 333 334 333 335 336 336 337 337 337 337 336 336 336 336 335 335 335 334 332 332 332 330 328 327 327 328 328 327 326 324 322 319 316 313 312 311 312 313 314 314 315 315 315 316 317 318 320 323 323 323 322 325 329 330 330 329 327 326 326 326 325 325 327 330 331 333 335 336 335 334 332 330 328 328 329 331 332 333 333 334
330 329 327 326 328 329 330 332 332 333 334 335 335 336 336 336 336 336 336 336 336 334 334 334 332 331 331 329 327 325 325 327 327 327 327 327 326 325 324 321 316 314 313 314 314 314 314 314 313 312 311 310 310 310 312 313 313 316 322 326 327 327 326 327 327 325 324 325 327 329 330 329 328 329 329 328 328 327 327 326 325 325 326 329 333 334 334
335 332 330 328 329 331 331 331 331 331 332 333 334 335 336 335 336 336 336 336 335 333 332 331 329 328 328 327 326 326 326 326 325 325 327 328 327 327 327 323 317 314 315 316 314 313 314 314 314 313 312 311 310 308 308 307 307 309 314 319 322 322 322 325 327 326 325 326 328 329 330 330 329 329 328 326 326 326 327 328 328 328 328 329 332 333 334
338 332 328 326 327 330 330 330 330 329 329 329 330 332 334 334 335 336 336 336 335 334 332 331 328 328 329 330 330 331 330 328 326 326 327 328 327 327 327 325 319 315 317 317 315 314 315 316 316 317 317 316 315 313 311 310 309 309 310 312 313 312 314 319 323 325 326 327 328 328 328 329 329 329 328 328 327 328 329 329 328 328 328 328 329 330 331
328 327 328 327 326 328 329 330 330 329 328 327 327 328 330 331 333 335 335 335 335 335 334 333 331 330 331 332 333 333 331 329 327 327 327 328 327 327 327 325 320 316 317 319 317 317 317 318 318 319 320 320 320 320 317 315 313 312 313 313 313 311 311 314 318 322 326 327 327 328 328 327 328 328 327 327 328 327 327 326 324 323 322 322 323 323 324
324 326 328 326 326 327 329 329 329 329 328 327 327 329 329 329 330 332 333 334 334 334 334 334 333 333 333 332 333 333 332 330 329 329 329 328 327 327 327 326 322 318 320 322 322 321 320 319 320 320 321 321 321 322 321 320 317 316 315 315 315 314 313 314 317 320 324 326 326 327 326 326 326 326 326 326 326 324 323 322 320 319 319 319 318 318 317
324 326 326 326 326 327 327 327 327 328 327 326 327 329 329 329 330 331 331 332 332 332 332 332 332 332 332 332 332 332 332 332 331 331 329 328 328 327 327 327 325 323 324 326 326 324 323 322 321 321 321 321 322 322 322 322 321 319 317 316 316 315 314 314 315 317 321 324 325 326 326 326 326 326 326 325 324 323 322 322 320 319 319 318 318 317 317
325 326 326 326 326 326 326 326 326 326 327 326 326 328 329 329 329 329 329 329 328 328 329 329 329 330 330 330 331 331 332 332 332 331 330 329 328 327 327 327 327 327 327 328 328 327 326 325 324 323 322 322 322 323 323 323 322 322 320 318 317 316 314 314 313 314 316 319 322 324 325 326 326 326 326 325 324 323 323 322 321 320 320 319 319 318 318
325 326 326 326 326 326 325 325 326 326 326 325 325 326 327 327 327 326 326 326 325 325 325 325 326 326 327 329 330 330 331 331 331 331 330 330 330 329 329 329 329 329 329 329 328 327 326 325 325 325 325 325 324 324 324 323 323 322 321 320 318 316 315 315 314 313 312 314 317 321 323 324 325 326 326 325 324 324 323 323 321 321 320 320 320 320 319
325 326 326 326 325 325 325 325 326 326 325 324 324 325 325 325 324 323 321 320 319 318 317 316 315 316 319 324 326 328 329 329 330 330 330 329 329 329 329 329 330 329 329 329 328 327 327 326 326 326 326 326 326 325 324 324 323 323 322 321 319 317 315 314 315 314 314 314 315 317 320 322 323 324 325 324 324 324 323 323 322 321 321 321 321 321 320
326 326 327 326 325 326 326 325 325 325 324 324 324 323 323 323 322 320 318 316 314 313 312 310 309 309 311 315 318 321 323 324 325 326 326 327 327 328 327 328 327 327 328 328 328 328 327 327 326 326 326 326 327 326 325 324 322 321 320 319 319 318 316 314 313 314 315 315 316 317 319 321 322 322 323 323 324 323 323 322 322 321 321 321 321 321 321
326 326 327 326 326 327 326 326 325 324 324 324 324 323 323 322 320 319 317 313 310 310 310 310 309 309 309 311 313 315 316 317 317 318 319 320 322 323 324 325 325 326 326 326 326 327 326 326 325 326 326 327 327 326 325 324 322 320 318 317 316 316 315 314 313 313 315 316 316 317 318 319 319 318 318 318 319 320 321 321 321 322 321 321 321 321 321
326 327 326 326 327 327 326 326 325 323 323 324 323 322 322 321 320 319 317 311 307 308 309 309 309 309 310 310 312 313 314 314 314 314 314 314 314 316 317 319 320 322 323 324 324 325 325 325 325 325 325 326 326 326 325 325 324 322 318 316 315 315 315 314 314 315 316 317 316 316 317 318 317 315 315 314 315 315 316 317 318 320 320 320 320 321 321
326 327 326 326 327 327 326 326 325 323 322 323 322 322 322 322 320 318 315 311 309 308 308 309 310 310 310 311 312 313 313 313 312 313 313 313 313 313 314 315 315 315 316 318 319 320 321 322 323 323 324 324 325 325 325 325 324 323 321 318 315 314 314 314 315 316 317 317 317 318 318 318 317 315 315 315 315 315 314 315 315 316 317 318 318 319 320
325 325 325 326 326 326 326 326 324 322 321 321 322 323 323 322 319 316 314 312 312 311 310 310 310 310 311 312 312 312 312 311 310 310 311 312 312 313 313 314 314 314 314 314 314 314 315 317 318 320 321 322 323 324 324 325 325 324 323 321 319 317 315 314 315 315 316 317 318 318 318 317 317 316 316 316 316 316 316 316 316 316 316 316 317 318 318
324 324 324 325 326 325 325 325 324 322 321 321 321 322 321 319 316 315 314 314 314 313 312 311 311 311 312 313 313 313 312 310 310 311 312 313 313 313 313 314 315 315 314 314 313 313 312 313 314 315 317 319 320 321 322 323 324 324 324 323 323 321 319 318 317 316 316 317 317 318 318 317 317 317 317 317 317 316 316 317 316 316 316 316 316 317 317
325 325 325 326 326 326 325 325 324 323 321 320 319 319 318 317 315 314 314 315 314 314 313 313 313 313 314 314 314 314 312 309 309 310 312 313 313 314 314 314 314 314 314 314 314 314 313 312 312 312 313 314 316 318 319 320 321 322 322 322 323 323 322 322 320 319 318 317 317 317 317 317 317 318 318 318 317 317 317 317 317 317 316 316 316 316 316
325 325 325 325 325 325 325 324 323 323 321 319 317 317 316 315 315 315 315 314 314 314 314 314 314 314 315 315 315 313 310 307 307 308 310 311 312 313 313 313 314 314 314 314 314 314 313 313 312 312 312 312 312 313 315 316 317 319 320 320 321 321 321 322 322 321 321 320 319 319 319 319 319 319 318 318 318 317 317 316 316 316 316 316 316 316 316
324 324 323 322 321 322 323 324 323 322 320 317 316 316 316 315 315 315 315 314 315 315 315 315 315 315 315 315 313 311 309 308 308 309 310 311 311 311 311 312 312 313 313 313 313 313 313 313 313 313 312 312 312 312 312 313 314 316 317 318 318 318 318 318 318 319 319 319 319 319 318 319 319 319 319 319 319 318 317 316 316 316 316 316 316 316 315
324 323 323 321 319 320 322 323 323 321 320 317 316 316 315 315 315 315 315 315 315 315 315 316 316 315 314 313 311 310 310 310 311 311 311 311 311 311 311 311 312 312 312 312 312 312 313 313 313 313 313 313 314 314 313 313 313 313 314 314 314 314 314 313 313 313 313 314 314 314 315 316 317 318 319 319 319 319 318 317 316 316 316 316 315 315 315
323 323 323 322 320 320 322 323 322 320 319 317 316 316 316 316 316 315 315 316 316 316 316 316 315 314 311 310 309 309 310 310 311 311 311 311 310 310 310 311 311 311 311 312 312 312 313 313 314 314 314 314 315 315 315 314 314 313 313 313 312 312 311 311 311 311 311 311 311 311 312 313 314 316 317 318 318 318 318 317 316 316 315 315 315 314 314
323 323 324 323 321 319 320 322 321 319 318 317 316 316 316 316 316 316 316 316 316 316 316 314 312 309 307 307 307 308 309 309 310 310 310 310 309 309 309 310 310 310 311 311 311 311 312 312 313 313 313 313 314 314 314 314 314 314 313 313 312 311 311 311 311 310 310 310 310 310 311 312 313 315 316 317 317 317 316 316 315 315 315 315 315 314 313
323 324 324 323 321 319 320 321 321 320 318 316 315 315 316 316 316 316 316 316 316 315 313 310 307 306 306 308 308 309 309 310 310 310 310 310 309 309 309 310 310 310 310 311 311 311 311 311 311 311 311 311 311 311 311 312 312 312 312 312 311 311 311 310 310 310 310 309 310 310 311 312 313 314 314 315 315 316 315 315 315 315 315 314 314 313 313
323 324 324 323 321 319 319 320 320 319 318 317 316 316 316 316 316 316 316 316 315 313 310 307 307 308 309 310 309 310 310 310 310 310 310 310 310 310 310 310 310 310 310 310 310 310 310 310 310 310 310 310 310 310 309 309 309 310 310 310 310 310 310 310 309 309 309 309 310 311 312 313 313 313 313 314 314 314 314 314 313 313 314 313 313 312 312
324 324 324 324 322 320 320 320 319 318 318 317 316 316 316 316 316 316 316 315 313 311 308 308 309 310 310 310 309 308 309 309 309 309 310 309 309 310 310 310 310 310 310 310 310 310 310 310 310 310 309 309 309 309 308 308 308 308 308 308 308 308 308 308 308 308 310 311 312 313 313 313 313 313 313 313 313 313 313 313 312 312 312 312 312 312 311
324 324 324 324 323 321 321 321 319 318 318 317 317 317 316 316 316 316 315 314 313 310 308 309 310 310 310 309 308 308 309 309 309 309 309 309 309 309 310 310 310 310 310 311 310 310 310 310 309 309 309 308 308 308 308 307 307 307 307 308 308 308 309 309 310 311 312 313 313 313 313 313 313 313 313 313 313 312 312 312 312 312 312 311 311 310 310
324 323 323 324 323 321 321 320 320 319 318 317 316 317 317 316 316 316 315 313 311 310 310 311 311 310 309 308 308 308 309 308 308 308 309 309 309 310 310 310 310 310 310 310 310 310 309 309 309 308 308 308 308 308 307 307 307 307 307 308 309 310 310 310 311 312 312 312 312 312 312 312 312 312 312 312 312 311 311 311 311 311 310 310 309 309 308
323 323 323 323 322 322 321 320 319 318 318 317 317 317 317 317 316 316 314 312 311 311 312 311 310 308 308 308 308 309 309 308 309 309 309 309 310 310 310 310 310 310 310 309 309 309 308 308 307 307 307 307 306 306 306 306 306 306 307 307 308 308 308 309 309 309 310 310 310 310 311 310 310 309 310 310 310 310 309 309 309 309 309 308 308 307 307
322 322 323 323 322 321 320 319 319 318 318 318 318 318 317 317 316 314 312 311 311 312 311 310 308 308 309 309 309 309 309 309 309 309 309 309 310 310 310 309 309 308 308 308 307 307 306 306 305 305 305 305 305 305 305 305 306 306 306 306 307 307 307 307 307 307 307 308 308 308 308 309 309 308 308 308 308 308 308 307 308 307 307 307 306 306 305
321 322 322 322 321 320 320 319 319 319 319 319 319 318 317 316 314 313 312 311 311 311 309 308 308 309 310 310 309 309 309 309 309 309 309 309 309 309 308 307 307 307 306 306 305 304 303 302 302 302 303 303 304 304 304 305 305 305 306 306 306 306 306 306 306 306 307 307 307 307 307 308 308 308 308 307 307 307 307 307 307 306 306 305 305 304 304
322 322 322 321 321 320 320 319 319 319 319 319 318 318 317 315 313 312 311 311 310 308 307 308 309 310 310 310 309 309 309 309 309 309 309 308 308 307 307 306 306 305 305 304 303 302 301 301 301 302 302 303 303 304 304 305 305 305 305 306 306 306 307 307 307 307 307 307 307 307 307 307 307 307 307 307 306 306 306 306 306 305 305 304 304 304 303
321 321 321 321 321 320 320 320 320 319 319 318 318 318 316 314 311 310 309 308 308 307 308 309 310 310 310 309 309 309 309 309 309 309 308 308 307 306 306 305 305 304 303 303 302 302 301 302 302 302 303 303 303 304 304 304 304 304 305 305 305 306 306 306 306 306 306 306 306 306 307 307 307 306 306 305 305 305 304 305 304 304 304 304 303 303 303
321 321 321 321 321 320 320 320 319 319 319 318 318 316 313 311 309 308 308 307 307 308 309 309 309 309 309 309 308 308 307 307 308 308 308 307 306 305 305 304 304 303 303 303 303 302 302 302 302 302 302 302 302 302 302 302 302 303 303 304 304 305 305 305 305 305 305 305 305 306 306 305 305 305 304 304 304 304 304 304 303 303 303 302 302 302 302
Wind_Speed
1 8 12 13 11 5 4 7 9 10 11 9 8 3 3 2 3 3 3 5 5 4 5 6 6 6 6 7 7 8 11 11 12 14 15 16 17 18 20 20 21 22 24 27 30 32 34 36 36 36 36 35 33 31 28 26 25 24 24 23 22 21 20 20 21 21 21 20 20 21 22 21 20 20 20 19 18 18 18 18 17 16 16 16 15 15 14
4 9 9 7 11 10 7 9 11 10 10 10 11 9 6 7 8 7 8 9 7 5 5 5 6 6 7 9 10 10 10 9 9 11 13 14 15 16 17 18 19 20 20 23 27 30 32 34 35 36 36 35 34 33 31 29 28 27 26 25 23 22 21 20 20 21 22 21 21 21 22 22 21 20 20 19 19 18 19 19 18 17 17 17 16 16 15
4 4 3 3 8 10 10 10 11 10 10 9 9 9 7 8 10 9 9 9 6 5 5 6 8 8 9 11 12 11 9 8 9 10 12 14 15 16 17 17 17 18 20 22 25 27 30 32 33 34 35 35 34 34 33 31 30 29 29 27 25 23 22 20 20 21 22 22 22 21 21 22 22 21 21 20 19 19 19 19 19 18 18 18 18 17 16
2 1 2 6 7 7 9 12 13 11 9 7 6 8 7 5 5 7 7 6 4 4 5 8 10 11 12 13 12 11 9 6 6 7 9 12 15 16 17 17 16 15 17 19 22 25 27 29 31 32 34 34 34 35 34 33 32 31 30 29 28 26 23 21 20 21 22 23 23 23 22 22 23 22 21 20 19 19 19 19 19 19 19 19 18 17 17
2 4 4 6 6 4 5 6 6 7 8 7 7 9 9 7 3 3 4 4 3 4 6 7 9 10 12 13 13 11 9 7 6 4 5 7 10 12 15 16 16 13 11 13 17 20 22 25 27 29 31 32 33 34 34 34 34 33 32 31 31 29 26 23 22 21 21 22 23 23 23 22 22 22 21 20 20 19 20 20 20 20 20 19 19 18 18
3 5 6 4 1 0 3 3 2 3 8 9 7 7 8 8 6 3 5 5 5 6 7 6 8 10 12 14 14 13 11 9 8 6 3 3 6 8 11 14 16 16 12 10 12 14 15 17 20 22 25 28 29 32 33 33 33 33 32 33 32 30 28 26 24 22 21 21 22 22 21 20 19 19 20 20 20 20 20 20 21 22 22 21 20 19 18
2 1 2 2 1 3 4 3 3 1 3 5 5 6 6 7 7 4 6 7 6 8 9 9 11 13 15 16 16 15 13 10 9 8 6 3 0 3 6 9 12 15 15 13 13 13 13 13 15 17 19 21 23 26 28 30 32 31 31 32 31 30 28 27 25 23 22 20 20 21 20 19 18 19 19 20 20 21 21 21 22 23 23 23 22 20 19
2 3 4 1 3 5 4 4 4 2 3 3 3 4 4 5 5 5 3 7 8 9 10 10 12 14 16 19 19 17 15 13 11 11 10 8 5 2 3 5 8 10 11 13 15 16 15 15 17 20 22 22 22 23 23 25 26 26 29 31 30 28 27 27 25 24 24 24 23 22 21 20 20 21 21 21 21 22 23 23 23 23 23 23 23 22 22
2 4 2 2 3 4 4 3 2 1 2 1 2 2 2 2 1 3 1 5 8 7 7 7 8 8 12 15 16 16 14 13 12 12 11 10 7 5 3 4 6 7 7 8 10 12 13 15 18 21 24 25 26 27 27 25 23 22 24 26 26 26 28 28 26 25 26 28 28 26 25 24 23 22 23 24 25 25 26 26 25 25 24 24 24 23 23
2 5 3 1 2 2 4 3 2 2 2 1 4 3 2 3 1 3 2 4 6 5 2 4 5 4 6 7 9 12 12 10 10 10 10 10 9 8 6 4 3 4 5 6 7 8 9 12 14 17 20 22 24 27 27 24 22 21 21 22 24 26 28 28 27 26 26 28 29 28 27 26 24 24 24 25 26 28 28 28 28 27 27 26 25 25 23
2 5 4 2 2 3 4 6 5 6 4 2 4 5 3 4 1 2 3 3 4 4 2 4 4 4 4 3 5 9 10 10 11 11 11 11 11 10 9 7 5 2 3 5 7 9 8 9 10 11 14 17 19 22 22 21 21 19 18 21 23 23 23 24 25 23 21 23 25 26 26 25 25 26 26 26 27 29 30 29 28 28 28 28 27 27 25
2 3 2 2 3 2 3 5 6 8 2 5 6 4 4 4 2 2 4 4 4 4 1 3 5 4 4 4 4 6 9 12 15 15 15 15 15 14 12 10 8 5 4 3 4 9 10 10 10 11 12 11 12 15 17 17 17 14 14 18 19 17 18 20 21 19 18 20 22 23 25 25 24 24 24 25 26 28 29 30 29 28 27 28 28 27 26
2 3 2 1 2 2 3 5 9 6 3 4 3 1 5 4 5 2 3 5 5 3 3 5 7 7 9 10 9 9 12 16 18 18 18 18 17 16 14 11 9 7 8 9 6 3 2 3 5 7 10 9 8 9 10 10 10 10 11 12 11 10 12 15 17 18 19 20 22 25 26 26 25 24 24 25 25 25 27 30 30 29 28 27 27 26 26
2 2 2 0 2 2 1 6 6 3 3 1 2 3 4 7 7 4 3 5 6 7 11 14 15 14 13 12 12 12 14 17 18 18 18 18 18 17 15 13 13 12 12 14 15 14 14 11 8 4 3 7 7 7 7 6 5 5 5 4 3 4 6 9 11 13 14 16 20 22 23 23 23 22 22 23 24 24 25 26 28 28 28 27 25 24 24
2 2 2 1 2 2 4 5 2 1 1 2 5 7 9 8 8 8 8 9 11 15 18 18 17 15 13 12 13 14 15 16 17 17 17 18 18 17 18 17 17 16 16 18 19 19 18 16 14 11 8 8 9 9 9 8 7 4 3 1 1 2 3 4 6 9 11 13 14 14 15 15 15 16 17 18 20 22 23 23 23 23 23 22 20 20 21
2 2 1 3 4 3 5 3 2 2 2 4 7 9 9 9 9 12 14 14 16 19 19 17 16 15 14 13 12 13 14 15 15 16 16 18 18 17 17 18 17 18 19 20 21 20 18 17 16 14 13 13 14 15 15 14 11 9 7 5 4 4 3 2 3 5 7 7 6 6 7 8 10 12 12 13 13 15 17 17 16 14 13 12 12 13 16
3 4 4 3 2 3 4 4 5 5 6 5 6 9 11 11 11 13 16 16 16 17 17 16 15 14 14 13 12 13 13 14 15 16 16 17 17 16 16 16 16 17 19 19 20 20 18 17 17 17 16 16 17 20 19 17 14 14 13 11 10 9 8 5 3 1 2 2 2 2 2 3 2 3 5 7 8 8 8 6 4 3 5 5 5 7 8
1 1 0 2 3 4 6 8 7 7 7 6 7 10 13 13 12 13 14 15 14 14 14 15 15 14 13 13 12 12 12 13 14 16 16 16 16 15 15 15 15 15 16 17 17 17 17 15 15 15 15 15 17 18 17 16 15 14 13 12 12 12 12 10 9 7 6 7 7 7 8 9 8 7 6 7 7 6 5 5 5 5 5 4 3 3 3
2 1 2 3 4 4 7 10 9 8 8 8 9 12 14 14 13 12 13 12 11 11 11 12 14 14 13 13 13 11 11 13 14 15 16 16 17 16 16 15 15 14 14 15 15 15 14 13 12 11 11 12 13 12 12 13 13 11 10 9 10 11 11 10 10 10 10 10 10 9 9 10 10 10 10 10 10 11 11 9 8 8 7 8 7 7 6
2 2 3 1 5 5 7 10 10 10 10 9 10 12 13 13 12 11 11 10 10 9 9 10 11 12 11 11 12 11 11 13 13 14 14 14 15 16 16 16 15 14 14 14 14 14 14 13 11 10 10 10 10 9 8 8 8 7 7 7 6 7 7 7 7 8 9 9 9 8 9 9 9 10 10 9 9 9 10 10 9 8 7 7 6 5 4
2 1 2 3 5 5 6 10 12 12 12 11 12 12 12 12 12 11 10 10 9 9 9 8 8 10 10 10 11 12 12 11 11 11 11 12 13 14 14 15 15 15 16 16 15 15 15 14 13 12 12 11 10 9 8 7 7 7 7 7 6 5 4 4 5 6 7 8 8 9 9 9 9 9 9 8 8 8 9 9 8 7 6 5 4 3 3
1 3 8 9 4 2 6 11 12 12 12 13 13 12 12 11 11 11 11 12 11 10 9 8 8 11 12 10 10 10 9 8 7 8 8 9 10 11 12 13 14 15 16 16 16 16 16 15 16 16 16 16 15 13 11 9 8 8 7 6 5 4 3 4 5 6 6 6 6 7 8 8 9 9 9 8 8 8 8 8 8 7 6 5 4 3 2
4 8 17 16 8 7 11 13 12 12 12 12 13 13 13 12 12 12 13 14 13 12 11 9 8 10 10 9 7 6 6 6 6 6 6 6 7 8 10 11 12 14 15 16 16 16 17 16 17 17 18 17 17 16 14 13 11 10 9 7 5 4 3 3 3 5 5 5 5 6 7 8 9 9 9 8 8 8 7 7 7 6 5 4 3 2 1
2 12 22 18 10 13 16 14 12 12 10 9 11 13 13 12 12 12 12 13 13 13 12 11 8 7 6 5 4 5 6 6 6 6 6 6 6 7 8 9 10 11 12 13 13 14 14 14 14 14 14 14 14 14 13 13 12 11 11 10 9 7 6 4 3 4 4 4 5 5 6 7 7 7 7 7 7 7 7 7 7 7 6 5 3 2 1
4 15 22 15 11 17 18 14 13 12 8 7 10 12 13 12 12 11 12 12 12 12 11 11 10 7 5 4 3 4 5 6 6 5 6 6 6 5 5 6 7 8 8 9 10 10 10 10 10 10 10 9 10 10 9 9 9 9 9 9 9 8 7 6 5 4 3 3 3 4 5 5 5 6 6 6 7 7 7 8 8 8 7 6 5 4 2
5 16 21 14 14 19 19 15 14 13 9 8 10 12 13 13 12 13 13 13 12 11 10 10 10 8 6 5 4 5 5 5 5 5 5 4 4 3 2 3 3 4 4 6 6 7 7 6 6 7 6 6 7 7 6 6 6 5 5 6 6 7 6 6 5 4 3 3 3 3 4 4 5 5 5 5 6 6 7 8 8 7 7 7 6 5 4
7 19 23 17 17 21 19 14 15 14 11 9 10 13 14 14 13 15 15 14 13 12 11 10 9 8 7 6 5 6 6 5 5 6 5 4 3 2 1 1 0 1 2 3 3 3 3 4 5 5 5 5 5 5 5 4 3 2 2 2 2 3 3 4 4 4 4 3 3 3 4 4 4 5 5 5 5 5 6 7 7 7 6 6 5 5 5
10 21 23 15 15 21 20 15 16 16 12 9 9 12 15 14 14 15 15 14 13 13 12 11 9 8 8 7 6 5 5 4 5 5 4 4 4 3 3 3 2 2 2 2 1 1 1 2 3 4 4 5 5 5 4 4 3 2 2 3 3 2 2 2 3 3 3 4 4 4 3 3 3 4 4 5 5 5 5 6 6 6 5 5 4 5 4
14 23 24 16 14 20 20 18 17 17 14 11 11 12 13 13 13 14 14 13 12 11 11 11 9 8 9 8 7 6 6 5 4 4 3 3 3 3 4 4 4 4 4 4 3 2 2 2 1 2 4 5 6 6 5 5 4 3 3 4 5 5 4 4 3 3 3 3 4 4 4 4 4 4 4 4 5 5 6 6 6 6 6 5 4 4 4
17 23 22 16 15 19 20 19 19 17 15 14 13 12 11 10 11 12 12 10 9 9 9 9 9 9 9 8 7 7 6 5 5 4 2 1 1 2 2 3 4 5 5 6 5 5 5 4 4 4 5 7 8 7 6 5 4 3 2 3 5 6 6 5 4 4 3 3 3 4 5 6 6 7 7 7 7 7 7 7 7 6 6 6 5 5 4
20 22 19 16 17 20 20 19 18 17 15 15 14 14 12 9 9 10 9 7 6 7 8 8 9 9 9 8 7 7 5 4 3 2 1 0 1 2 3 3 4 5 5 6 6 6 7 7 7 7 8 8 7 6 6 6 5 3 3 2 3 5 5 5 4 4 3 3 3 3 4 5 6 7 7 8 8 9 8 8 7 7 7 6 6 6 6
20 18 14 15 18 20 20 20 19 18 17 17 15 13 12 9 7 7 6 5 5 5 6 7 8 8 8 8 7 6 5 4 3 3 2 2 2 2 3 3 4 4 4 5 5 5 6 7 7 7 8 8 7 7 7 6 6 5 4 4 3 4 5 6 5 4 4 3 3 3 3 4 5 5 5 5 6 7 8 8 9 9 8 8 8 7 7
22 19 17 20 23 23 22 22 20 19 19 17 14 12 11 9 7 6 6 4 3 4 4 4 6 7 7 7 6 5 5 5 4 3 3 2 2 2 3 3 3 3 3 4 5 5 6 6 6 6 6 6 6 7 8 7 7 7 7 6 5 5 6 7 6 6 6 5 4 4 4 5 5 5 4 4 4 5 6 8 9 9 9 9 8 8 8
19 19 19 22 23 23 23 23 22 21 20 17 15 14 13 10 8 7 6 3 1 2 3 3 5 6 7 8 7 8 9 9 7 4 3 2 2 2 3 3 2 2 2 3 4 4 5 6 6 6 6 6 6 7 8 9 9 9 9 9 8 7 8 8 8 8 8 7 7 6 6 6 5 5 5 5 5 5 6 7 8 9 10 10 9 8 8
16 16 17 19 20 20 19 20 22 22 20 19 17 16 14 12 10 8 6 4 3 2 3 4 5 7 8 9 9 10 12 12 9 6 5 4 3 2 2 2 2 3 3 3 3 4 4 5 5 6 6 7 7 8 9 9 9 10 11 11 10 10 9 9 9 9 9 9 9 9 9 9 8 7 7 7 7 7 7 8 8 9 10 11 11 10 10
15 16 16 17 18 18 18 19 20 20 19 18 18 18 16 13 10 8 6 6 6 5 5 6 7 8 8 9 10 12 14 13 10 8 7 6 6 5 4 3 3 4 4 4 5 6 5 6 6 6 6 6 7 7 8 8 8 9 10 11 11 11 11 11 11 12 12 12 12 12 12 12 12 11 11 10 10 10 10 10 10 10 10 11 12 12 12
15 15 14 14 15 16 18 20 19 18 18 18 18 17 15 12 10 9 9 8 8 8 7 7 8 9 9 9 11 12 13 12 10 9 9 9 8 8 7 6 6 6 5 5 6 7 7 7 7 7 8 8 8 8 8 7 8 8 8 9 9 10 11 11 12 12 13 14 14 15 15 16 16 16 16 15 14 13 12 13 13 13 13 13 13 13 13
15 13 12 11 11 12 16 19 19 18 18 18 18 16 13 11 10 11 11 11 10 9 9 9 9 9 9 10 11 11 10 10 10 10 10 10 10 10 9 9 8 8 8 8 8 8 8 8 8 8 9 9 9 9 8 7 7 7 7 7 8 8 9 10 10 11 12 13 14 16 17 18 19 20 20 19 19 18 17 16 15 15 16 16 15 14 12
16 14 12 11 10 10 14 18 20 18 17 17 17 15 13 12 12 12 12 12 11 10 9 9 9 9 9 9 9 9 8 8 9 9 10 11 11 11 11 10 10 10 9 9 9 9 8 8 8 9 9 9 9 8 8 7 7 7 7 7 8 8 8 9 9 10 11 12 13 15 16 16 18 19 20 20 21 21 21 20 18 18 18 17 15 12 11
18 16 15 13 12 12 15 18 19 18 17 16 15 14 14 13 14 14 13 12 11 10 10 9 9 9 9 8 7 7 7 8 8 9 9 10 10 10 10 10 10 9 8 8 9 8 8 7 7 8 8 8 8 9 9 9 9 9 9 9 9 9 10 11 12 13 13 14 14 15 16 16 17 18 18 19 19 19 19 21 22 22 21 20 16 13 11
19 18 17 16 14 14 16 18 18 18 19 18 17 16 16 15 14 14 13 12 11 10 9 9 9 8 6 5 5 5 6 7 7 8 8 8 8 8 8 8 7 7 7 8 9 9 9 9 9 9 10 10 10 10 11 11 12 12 13 13 14 15 16 17 17 17 17 17 16 15 16 16 17 16 16 16 15 13 13 15 18 20 21 20 18 15 13
20 19 18 17 16 16 17 18 18 19 20 21 20 19 17 15 14 13 12 10 10 10 10 9 8 6 4 5 5 6 6 6 7 7 8 8 8 7 6 5 4 5 6 7 8 9 10 11 11 12 13 13 14 14 14 15 16 16 17 18 19 20 21 21 21 20 19 18 17 15 15 15 14 13 12 11 9 8 8 9 11 14 16 15 13 12 12
21 20 20 19 17 17 17 18 18 18 20 21 20 19 17 15 14 12 11 10 9 9 8 7 6 5 6 7 7 7 6 7 7 7 7 7 7 6 6 5 5 5 6 7 7 8 9 10 11 12 12 13 13 14 14 14 15 16 17 18 19 19 20 20 20 20 19 17 15 13 12 12 11 9 9 7 6 6 6 7 7 9 11 11 10 10 11
21 21 21 20 18 18 18 18 18 18 19 20 20 19 17 15 13 11 10 9 8 7 7 7 6 7 8 9 8 7 6 6 5 5 6 6 7 7 6 6 5 6 6 7 8 9 9 10 10 10 10 10 10 11 11 11 12 13 14 15 16 17 17 18 18 16 15 13 11 10 10 10 10 9 8 7 7 8 9 9 9 10 11 11 12 12 12
21 21 21 20 20 19 19 19 19 18 19 20 20 19 17 14 12 10 9 8 8 8 8 7 7 8 10 9 8 5 4 4 4 5 5 5 5 5 5 5 5 5 6 7 9 9 10 10 10 9 9 9 10 10 10 10 10 10 11 12 12 13 13 13 13 11 10 9 9 9 9 9 10 10 10 10 11 12 13 13 13 12 11 11 10 10 9
20 20 21 20 20 19 18 19 19 19 19 20 20 18 16 14 11 10 9 8 8 8 7 7 8 9 9 7 5 4 4 4 4 4 4 4 4 5 5 5 5 6 7 8 9 10 10 10 11 11 11 11 11 11 11 11 10 10 10 10 10 10 10 9 9 9 9 8 8 8 8 8 8 8 9 9 9 9 10 10 10 10 9 9 8 7 7
20 20 21 20 19 19 18 19 19 20 21 21 20 18 15 13 12 10 9 8 7 7 7 7 8 7 6 4 4 3 3 2 2 2 3 3 4 5 5 5 6 7 8 9 10 10 10 11 11 11 11 11 11 11 11 11 11 11 11 11 11 11 10 10 9 9 9 9 8 8 8 8 7 7 7 7 6 5 5 6 6 7 8 7 6 6 6
19 20 20 20 19 19 20 21 22 22 22 21 19 16 14 13 11 10 9 8 7 7 7 7 7 6 6 5 4 3 2 1 0 1 2 3 4 4 5 5 7 8 9 10 10 10 10 10 10 10 9 9 9 9 9 9 10 10 10 11 11 11 11 12 11 11 11 10 10 10 9 8 7 6 6 5 5 4 4 4 5 5 6 6 6 6 7
20 20 20 20 20 21 23 24 24 24 22 20 17 15 13 12 10 10 9 8 8 8 7 7 7 8 7 5 4 3 2 1 2 3 3 3 4 4 5 6 7 7 7 7 7 8 8 8 8 8 8 8 8 8 8 8 7 8 8 8 9 9 10 10 9 9 9 8 8 8 7 5 4 4 4 4 4 4 5 5 5 5 5 6 6 6 6
21 21 21 21 22 23 24 25 26 25 23 20 17 15 13 12 11 10 10 9 9 8 7 8 9 9 7 5 4 3 3 3 4 4 4 4 4 4 5 4 4 4 4 5 5 6 6 6 5 4 4 5 5 5 5 6 6 6 6 6 6 6 7 6 5 5 5 5 4 4 4 5 5 4 4 4 4 4 5 6 6 6 6 6 6 7 7
20 20 20 21 22 23 25 26 25 23 21 19 17 14 13 11 11 10 10 10 9 8 9 11 11 9 7 5 4 4 4 5 4 4 4 3 4 3 3 2 2 2 3 3 4 5 5 4 5 5 4 4 5 5 5 5 5 5 4 4 4 5 5 5 5 4 2 1 2 3 4 4 4 3 3 3 3 3 4 5 6 6 7 7 8 9 9
18 19 19 20 22 24 25 25 24 22 20 18 16 14 12 12 12 11 10 10 9 10 11 12 11 9 7 6 4 4 3 3 3 3 3 3 2 1 1 1 2 2 2 3 3 4 4 4 5 6 6 6 6 5 5 5 6 5 4 3 2 2 3 4 4 3 3 3 3 3 3 3 2 1 1 2 2 3 4 5 6 6 6 6 6 6 6
Wind_Direction
75 53 32 360 352 358 17 43 47 36 31 45 64 60 263 199 138 182 179 115 94 55 31 22 21 35 49 58 88 127 137 136 145 153 159 168 178 191 202 206 210 211 212 215 218 221 223 225 227 228 229 230 231 231 233 234 232 231 230 230 232 233 233 235 236 236 237 237 234 232 233 233 233 233 234 235 236 237 237 236 236 235 235 234 234 238 240
40 64 62 2 348 343 350 37 50 44 46 52 55 62 77 91 99 116 113 96 76 50 33 21 27 44 63 76 91 112 131 143 156 164 169 176 183 195 205 210 214 215 216 217 219 220 222 224 226 227 229 231 232 232 234 235 236 235 232 232 233 235 236 239 240 238 237 237 236 234 234 234 234 234 235 236 235 234 234 235 236 235 234 234 235 238 241
1 34 73 331 335 327 331 15 39 39 44 48 43 50 67 81 93 106 101 87 68 48 44 45 46 53 63 67 72 82 104 137 160 173 183 190 197 205 210 214 216 219 220 219 219 219 220 222 225 227 229 231 232 233 234 236 237 237 235 233 234 236 237 240 243 242 239 237 236 236 236 236 237 237 238 237 236 234 233 234 236 236 235 235 237 239 242
282 320 358 305 301 291 313 359 21 23 33 50 50 45 45 50 88 106 94 79 62 47 57 61 55 55 59 54 53 62 79 112 148 171 184 193 203 207 209 213 214 216 220 220 217 216 217 220 223 225 228 230 231 233 234 235 237 238 238 236 236 238 239 239 242 243 241 239 238 239 239 238 238 239 239 238 236 234 234 234 234 235 236 238 239 241 245
196 182 186 262 284 271 279 327 2 13 25 44 55 51 42 29 33 85 77 67 66 63 67 68 60 57 58 54 50 53 62 81 104 136 178 199 212 218 221 223 221 216 215 213 212 213 215 218 222 225 227 229 230 232 232 233 234 236 237 236 236 238 238 238 240 242 240 237 236 239 240 239 238 237 237 238 235 233 232 232 231 233 236 239 241 244 249
189 196 184 207 313 14 235 262 285 17 35 41 47 44 32 23 24 61 83 75 69 70 69 66 62 58 57 57 56 53 55 63 70 75 105 183 212 222 228 233 232 230 224 209 202 204 207 212 216 220 224 227 229 231 231 232 234 235 237 238 237 237 238 238 240 244 244 237 233 233 233 233 234 235 237 238 236 232 231 230 230 232 235 239 243 248 253
181 216 49 43 324 245 246 286 301 310 44 58 67 56 34 23 15 30 78 80 69 74 75 67 65 65 61 59 56 55 57 58 55 53 49 41 188 218 227 235 240 240 240 234 224 218 213 214 219 223 224 225 226 229 231 233 234 235 238 240 239 237 239 240 239 244 250 246 235 226 223 226 233 238 242 242 238 233 231 231 233 237 240 242 245 249 253
151 84 50 330 264 265 284 325 332 338 19 39 70 57 29 27 7 344 40 86 87 85 82 70 68 72 68 60 52 47 51 53 54 54 45 33 24 345 273 257 255 253 252 252 249 245 240 238 240 240 239 235 230 229 229 230 232 234 238 243 242 238 241 244 241 241 250 256 250 236 227 227 232 237 242 245 244 240 237 237 239 241 243 245 247 249 251
132 108 106 285 313 309 299 327 351 13 10 13 109 98 325 347 15 302 296 105 101 99 89 63 58 68 68 60 45 36 39 44 48 52 50 45 37 22 355 290 272 269 268 265 261 260 258 254 251 247 245 242 238 236 236 236 236 235 234 239 243 241 243 248 247 243 247 255 258 252 242 237 236 238 242 244 246 248 246 243 244 245 247 249 251 252 252
104 102 99 10 5 284 256 257 279 345 348 230 144 108 314 283 187 227 231 111 106 126 118 359 3 37 62 56 34 27 30 33 36 41 43 47 47 38 29 4 311 284 274 261 245 242 248 248 245 243 243 243 240 238 238 238 241 242 238 242 247 243 243 249 252 249 249 253 259 260 255 250 246 247 249 250 252 255 255 251 249 249 250 251 252 254 255
107 114 122 161 190 232 246 242 275 343 2 192 131 70 332 273 177 185 213 163 149 181 243 344 10 52 70 64 34 27 30 37 43 45 43 46 50 50 45 40 31 359 305 271 226 210 213 221 221 222 228 234 235 236 236 237 241 244 242 242 242 240 241 247 252 255 256 255 257 259 259 257 256 256 257 256 255 257 259 258 254 252 252 254 255 255 255
110 111 119 182 210 238 233 243 298 342 28 148 106 57 282 250 147 165 208 188 187 206 213 40 50 68 101 113 78 48 50 56 58 57 54 54 58 60 61 58 55 47 17 354 236 221 225 228 225 222 219 217 218 223 226 229 231 229 223 223 226 231 239 247 253 260 263 262 259 258 258 259 259 260 261 260 259 258 258 259 258 255 252 253 253 252 252
76 90 124 207 250 232 228 286 318 349 90 117 90 213 228 179 133 166 201 175 178 181 130 105 92 92 107 113 99 79 72 68 65 61 58 58 61 63 64 58 53 54 54 58 76 112 155 199 215 223 223 219 214 212 212 216 218 213 209 213 215 223 239 250 258 262 263 263 259 255 254 256 257 259 262 263 263 263 260 259 258 258 256 254 253 250 249
71 106 118 337 279 234 315 328 334 34 103 157 210 184 138 121 127 136 128 139 143 123 110 110 112 112 111 106 97 87 79 73 70 65 59 59 62 64 65 62 59 64 72 78 82 78 72 73 75 80 182 195 190 186 179 172 175 175 177 190 207 235 258 266 266 263 261 258 255 252 251 252 255 259 262 260 258 258 257 256 258 259 259 258 259 258 255
104 77 65 71 206 251 343 350 354 99 111 183 151 113 98 106 119 114 106 113 123 121 117 117 120 121 116 105 95 90 84 77 72 67 61 60 64 66 68 69 70 76 82 84 83 78 73 73 72 71 88 115 120 119 114 106 100 102 105 95 319 293 289 277 260 255 254 252 252 256 256 255 255 259 261 260 256 251 249 251 257 262 263 263 265 264 257
122 104 161 204 218 284 338 2 160 160 138 138 123 106 105 112 112 111 113 118 124 125 122 122 125 125 118 108 95 89 85 77 71 69 65 64 67 68 69 69 71 76 81 82 80 76 71 70 72 76 82 90 94 93 89 85 84 85 88 87 81 82 90 137 208 237 251 255 262 272 274 270 267 267 266 264 257 250 248 253 263 268 267 264 261 255 247
168 176 206 234 278 339 17 75 112 120 120 116 104 104 113 116 113 110 112 119 126 125 122 124 126 124 120 113 101 91 84 76 71 70 66 65 68 71 72 71 70 72 77 81 82 81 77 73 72 75 81 86 88 86 83 81 79 76 76 76 75 77 82 90 100 92 313 321 328 337 356 355 319 275 249 230 223 226 235 245 251 237 225 227 235 240 242
195 151 3 7 26 41 68 87 99 111 115 108 101 105 111 114 114 108 108 116 122 122 123 125 124 123 124 118 107 96 85 79 77 74 69 67 67 68 71 72 69 70 74 78 82 84 84 80 77 76 80 83 84 83 84 84 82 76 72 71 73 78 81 83 81 76 65 60 63 70 70 69 77 92 118 145 149 139 126 116 108 117 130 128 124 136 133
103 75 327 353 32 60 85 93 98 103 107 108 109 109 112 116 116 109 105 108 113 118 123 123 119 121 123 115 109 102 91 87 86 78 72 70 69 68 68 67 67 70 74 76 81 84 85 84 82 81 83 83 83 84 88 90 88 84 80 77 77 79 79 76 73 71 67 60 57 63 71 75 82 92 99 103 104 102 99 94 88 88 89 89 91 97 99
120 214 256 27 73 92 107 107 106 105 107 113 115 112 115 121 119 112 104 99 103 114 121 121 118 119 119 115 111 107 101 98 93 82 76 73 70 68 67 65 66 71 75 76 76 78 78 77 76 75 76 78 79 79 81 83 82 82 90 93 90 84 78 68 58 54 53 50 50 59 71 80 90 100 101 97 95 92 85 78 75 76 78 77 77 81 83
77 274 215 122 85 82 110 115 113 110 110 115 117 114 117 123 122 120 112 100 98 108 114 117 118 116 116 116 113 111 112 107 97 87 83 79 73 68 64 62 64 67 70 71 72 72 71 67 62 59 60 63 66 67 65 62 60 66 84 102 107 96 82 67 56 50 52 57 62 68 74 77 80 86 88 84 78 72 67 65 64 68 78 84 82 74 63
165 218 185 168 137 110 148 133 120 116 114 113 116 117 117 119 122 126 123 112 106 106 106 109 117 119 118 117 113 114 118 115 104 94 88 84 80 73 63 57 60 64 66 68 72 75 75 71 65 62 59 58 59 58 57 55 54 58 71 92 106 103 86 70 64 59 56 57 59 66 73 70 62 60 61 62 63 62 60 60 60 60 68 79 83 75 53
220 196 178 171 151 142 156 145 127 124 120 113 116 118 116 116 120 126 126 121 116 111 108 109 119 122 117 110 106 108 115 122 118 101 92 94 94 83 69 60 61 65 66 66 72 78 80 76 70 65 61 59 58 56 54 54 53 52 54 60 68 74 71 64 59 55 54 52 52 59 64 58 49 46 47 51 54 52 47 44 39 35 37 48 61 75 75
151 172 172 172 156 145 151 149 138 135 131 118 116 118 116 117 121 125 126 125 124 123 121 120 122 125 119 103 87 86 95 104 107 100 100 109 108 94 82 72 69 71 68 64 67 74 77 74 68 61 58 55 53 52 52 51 50 49 49 49 52 58 65 66 57 48 45 43 40 42 44 40 34 32 32 32 31 29 26 23 18 16 18 26 37 46 6
98 166 171 170 159 148 145 144 143 143 144 135 123 119 119 120 122 127 128 123 123 125 126 126 126 129 139 138 116 103 101 100 98 96 97 100 99 92 83 77 76 78 71 62 62 64 64 62 59 55 53 50 49 50 51 48 47 45 44 42 42 48 56 60 59 56 45 29 19 17 17 16 13 11 10 10 12 18 22 22 19 17 20 25 34 40 33
117 164 165 155 149 150 145 143 146 145 146 144 129 123 125 125 123 125 122 117 118 118 118 123 124 124 133 140 132 131 135 132 127 118 109 112 118 110 90 77 73 66 53 48 54 57 53 47 42 37 36 34 37 42 45 46 45 43 41 36 31 33 38 42 45 48 41 21 6 0 359 359 359 0 0 1 7 15 17 16 15 17 21 26 30 34 39
161 167 162 146 146 158 160 157 153 147 144 144 131 125 130 129 125 124 119 115 117 114 108 111 117 118 123 128 130 139 146 150 150 144 137 145 161 174 186 189 93 41 18 17 32 42 42 34 25 17 11 10 14 20 25 27 27 23 20 12 3 6 11 15 21 28 26 11 359 351 349 348 348 349 349 352 358 2 1 1 2 7 17 29 35 37 42
181 177 175 169 167 172 170 162 156 151 147 147 141 134 134 131 125 123 121 118 117 114 109 107 108 111 113 111 117 134 139 141 147 151 150 160 176 199 219 231 250 261 267 297 322 335 350 8 16 8 355 348 350 354 356 356 349 326 291 275 275 277 287 313 340 3 10 2 353 346 340 334 327 324 326 329 329 330 335 340 342 347 357 8 17 22 28
187 182 187 194 185 174 166 157 156 155 151 152 154 148 144 139 130 123 121 118 116 114 108 102 95 96 103 105 107 114 116 118 124 127 136 159 182 213 228 236 248 251 253 265 272 279 290 291 317 342 337 334 340 343 341 340 338 320 292 276 270 269 271 278 292 316 344 353 352 350 346 337 324 314 310 309 306 307 313 319 319 321 328 333 339 345 352
186 185 191 194 181 173 169 163 162 162 160 160 161 158 156 155 142 127 120 116 111 103 93 84 77 83 95 103 105 106 105 106 107 102 103 129 197 265 268 273 277 271 267 270 271 273 278 279 288 306 312 317 324 329 329 334 337 326 303 279 269 270 272 275 282 295 315 334 340 338 333 328 323 316 308 301 296 296 299 301 301 302 305 308 311 314 312
184 187 192 189 179 178 178 172 169 172 171 168 167 165 166 169 158 140 127 112 99 90 80 72 69 74 82 86 87 89 87 83 82 83 87 160 252 262 267 281 288 289 288 283 276 273 274 277 282 288 292 299 304 305 308 316 320 316 307 284 263 258 258 261 270 282 294 308 317 319 319 318 316 314 311 305 298 295 294 293 291 288 289 291 294 290 283
178 179 183 182 179 181 182 179 178 179 177 176 179 180 178 178 171 157 142 115 87 76 68 58 53 55 61 65 68 69 63 52 39 24 12 4 321 280 270 266 268 275 284 285 279 277 278 280 283 284 285 288 287 284 288 294 293 289 286 279 262 246 238 236 244 257 264 270 274 282 300 308 309 313 321 320 312 304 299 296 292 288 284 286 287 280 270
176 172 175 180 180 181 184 186 187 187 185 184 189 193 190 187 179 167 158 136 77 54 48 36 26 23 25 28 29 25 16 6 355 345 339 331 309 298 300 296 287 282 281 280 282 284 284 285 286 283 281 279 272 268 271 276 277 275 271 265 256 245 234 230 235 243 247 248 251 260 275 287 293 299 310 322 328 327 321 315 310 305 300 296 291 279 265
193 191 192 194 193 193 193 193 192 192 190 189 192 195 194 190 185 181 181 181 92 26 12 357 351 351 353 353 350 343 338 337 337 336 332 321 305 293 294 300 306 309 311 311 306 298 290 286 281 277 273 269 262 258 257 260 260 258 257 258 258 254 248 244 243 241 239 236 238 245 255 265 273 280 285 291 296 301 305 308 309 309 309 307 302 291 274
213 214 211 208 207 208 206 202 198 195 193 191 192 194 194 192 192 196 206 224 251 288 308 316 318 321 324 326 326 325 327 329 332 334 332 329 327 321 306 287 278 285 306 321 314 307 303 295 287 282 276 269 262 257 255 256 253 248 249 254 258 259 258 258 256 255 252 247 243 243 247 251 255 257 259 264 271 274 278 285 291 297 301 303 302 299 291
214 218 217 214 213 214 214 210 205 201 198 196 194 192 192 196 202 211 223 236 248 263 277 287 292 294 297 301 306 314 319 322 322 322 319 316 315 315 309 295 281 282 291 293 290 297 306 304 301 303 297 284 276 270 265 262 260 255 253 254 256 258 260 262 263 263 263 262 262 260 259 258 260 261 260 260 263 266 272 278 283 287 292 295 296 297 295
213 218 219 217 217 218 218 214 208 204 202 200 197 195 196 201 210 220 229 235 241 248 258 269 275 275 276 284 296 306 311 312 312 314 314 314 314 314 311 306 299 297 296 290 286 292 298 297 299 308 312 309 305 299 290 284 278 273 270 267 264 263 264 265 266 265 265 266 267 268 267 267 267 268 267 267 266 265 269 275 281 284 288 291 291 291 290
212 211 210 208 208 215 217 212 207 205 204 201 198 198 202 209 217 223 229 233 236 241 249 257 261 264 271 284 296 302 304 303 303 304 306 308 310 311 311 310 306 303 302 299 297 297 295 290 288 295 301 303 301 299 299 298 292 286 284 282 278 275 274 273 272 271 270 270 269 269 269 269 268 267 266 266 266 265 264 267 274 280 283 287 290 289 284
211 205 201 197 198 204 207 205 204 206 207 205 202 202 206 216 225 229 231 231 233 238 246 251 257 269 282 292 295 296 294 292 293 295 298 301 302 304 305 305 303 303 303 303 302 301 297 290 286 285 286 285 281 279 282 286 287 285 283 278 275 274 275 276 278 280 279 278 276 274 272 271 270 267 265 265 265 265 263 262 265 269 274 278 283 282 272
212 207 202 199 198 199 200 201 203 206 207 209 211 213 217 224 230 232 233 233 235 240 249 259 273 287 293 294 292 288 286 287 291 292 295 298 300 301 302 300 299 298 296 292 290 290 287 284 283 281 279 278 274 272 271 272 273 275 275 273 273 276 280 285 289 290 288 285 281 278 276 273 271 269 267 268 269 269 264 260 259 261 265 271 273 269 259
215 212 208 204 202 200 199 200 203 206 209 213 217 222 227 233 236 234 233 234 238 248 263 277 287 291 291 291 295 295 293 296 297 298 301 307 308 305 302 299 295 290 282 276 274 275 274 274 274 273 273 272 271 269 269 268 268 269 270 272 274 278 282 285 286 285 283 281 278 275 274 271 269 267 267 267 267 265 261 259 260 261 264 266 265 259 253
215 213 209 206 204 202 200 202 205 210 213 216 218 222 227 230 230 230 232 236 247 264 277 283 284 287 297 310 314 308 299 296 296 299 306 312 313 305 299 297 292 283 275 273 275 277 278 279 279 278 277 276 275 273 272 271 270 270 270 271 272 274 277 279 279 278 277 276 273 270 267 263 261 260 262 262 262 261 264 269 270 267 265 261 252 243 241
216 214 211 209 207 203 202 204 207 211 214 216 219 222 224 222 221 224 232 243 257 273 280 279 280 294 313 318 314 303 291 286 287 292 299 302 299 291 287 288 286 282 278 278 279 282 285 286 286 286 284 283 281 280 277 274 271 270 269 270 271 272 273 274 276 277 278 277 273 269 265 262 261 264 269 273 277 273 267 263 259 255 254 251 246 244 246
214 213 212 211 209 206 206 207 209 211 214 217 217 217 216 216 220 228 238 251 268 280 280 278 288 306 316 315 309 300 290 283 280 281 284 285 286 286 286 286 282 280 279 281 285 290 292 292 290 289 288 286 285 286 285 283 280 276 273 272 272 273 274 275 276 278 280 280 275 268 264 263 263 263 262 260 253 247 244 244 246 246 248 250 253 256 257
212 211 211 212 211 211 211 212 213 214 216 216 213 211 212 216 224 233 245 260 274 279 275 279 293 306 308 305 298 286 276 272 272 278 283 287 292 294 294 290 287 287 287 289 292 294 295 295 295 294 293 292 290 289 291 292 292 289 285 282 279 278 277 276 275 274 271 268 262 257 254 250 247 243 239 235 235 237 239 241 244 246 248 251 252 251 247
213 211 211 213 215 216 216 216 216 215 214 211 207 207 211 219 228 238 249 261 269 269 268 278 291 295 293 285 268 253 252 257 264 271 281 290 299 303 302 299 297 294 291 291 294 296 297 299 299 297 296 295 294 292 292 292 291 288 285 282 280 278 275 271 266 261 256 253 249 244 238 231 230 231 231 231 234 238 240 240 242 243 245 246 244 238 232
214 212 213 215 217 217 216 214 211 210 209 209 209 211 216 221 228 236 245 254 258 256 259 271 277 271 257 235 214 210 221 236 254 273 284 288 291 292 291 291 292 292 292 294 299 302 303 304 302 299 297 295 293 292 290 287 283 280 278 275 273 271 269 265 258 252 248 246 244 239 231 225 227 236 240 239 238 241 242 242 241 238 235 235 235 232 230
215 215 215 216 216 215 213 211 210 210 212 214 215 216 218 219 224 231 239 242 241 245 255 262 252 226 201 184 172 168 169 179 308 320 309 292 283 284 289 293 295 295 297 301 304 307 309 308 305 302 299 296 294 294 293 291 286 283 279 276 274 270 266 263 261 259 256 254 253 251 246 240 241 246 247 240 236 239 242 240 235 230 227 229 232 233 236
216 217 216 216 216 214 212 212 213 214 215 214 213 212 212 214 220 227 231 231 235 243 249 237 210 192 185 185 186 188 204 253 298 308 303 293 286 289 297 299 299 299 303 310 315 319 320 319 313 305 298 294 293 295 297 297 296 292 288 284 280 276 271 269 269 270 269 268 268 266 256 237 221 221 225 225 226 233 238 236 232 231 233 237 240 245 252
215 217 218 218 218 217 216 217 219 218 214 210 206 207 211 218 224 226 226 227 232 234 224 203 191 190 196 208 217 226 245 267 280 287 289 290 294 295 296 299 305 312 320 330 338 341 340 338 338 333 320 311 310 312 312 311 310 304 296 287 280 274 270 267 265 266 268 271 268 255 227 197 185 193 214 227 235 241 240 237 234 237 245 254 264 271 276
219 221 223 224 223 222 221 222 222 217 210 205 204 208 217 224 224 221 220 222 223 215 202 196 196 200 207 213 219 230 245 258 264 265 268 281 296 299 295 303 334 345 348 354 1 3 6 16 26 25 13 2 357 352 346 344 344 337 322 303 282 268 262 256 247 240 235 208 188 186 178 173 181 211 240 251 254 249 247 249 257 265 273 279 282 281 277
226 228 228 227 224 222 221 220 216 210 203 201 206 212 217 216 211 207 208 210 209 203 198 199 202 204 205 202 199 198 206 221 227 230 246 278 303 308 319 12 17 17 14 14 14 16 25 39 47 46 40 34 30 27 24 23 20 12 0 345 313 276 259 246 227 201 158 125 119 129 135 140 160 211 255 278 280 275 274 278 283 285 285 284 282 276 269